Hourly Data Report for October 09, 2016

All times are specified in Local Standard Time (LST). Add 1 hour to adjust for Daylight Saving Time where and when it is observed.

PETAWAWA AWOS 2
ONTARIO

45°57'00.000" N
77°19'00.000" W
130.10 m
6106396
71625
YWA

Download Data

Hourly Data (October 2016)
Hourly Data Report for October 9, 2016
Temp Definition
°C
Dew Point Temp Definition
°C
Rel Hum Definition
%
Wind Dir Definition
10's deg

Wind Spd Definition
km/h
Visibility Definition
km
Stn Press Definition
kPa
Hmdx Definition


Wind Chill Definition


Weather Definition


TIME
00:00 4.3 4.3 100   0 14.5 100.31     LegendNANA
01:00 3.2 2.9 98 25 4 14.5 100.37     LegendNANA
02:00 5.8 4.7 93 30 7 14.5 100.44     LegendNANA
03:00 5.5 4.5 93 29 6 14.5 100.51     LegendNANA
04:00 5.8 4.5 91 31 11 14.5 100.56     LegendNANA
05:00 5.1 4.1 93 30 9 14.5 100.64     LegendNANA
06:00 4.5 3.2 91 30 11 14.5 100.72     LegendNANA
07:00 4.2 2.3 87 31 13 14.5 100.86     LegendNANA
08:00 5.7 2.9 82 32 13 14.5 100.91     LegendNANA
09:00 6.1 1.3 71 35 22 14.5 100.96     LegendNANA
10:00 7.1 0.0 61 34 22 14.5 101.01     LegendNANA
11:00 7.5 0.3 60 1 22 14.5 101.00     LegendNANA
12:00 8.4 0.6 58 34 17 14.5 100.99     LegendNANA
13:00 9.0 1.5 59 36 15 14.5 100.98     LegendNANA
14:00 9.1 1.4 58 32 15 14.5 100.97     LegendNANA
15:00 9.7 0.3 52 34 17 14.5 101.00     LegendNANA
16:00 9.2 -0.6 50 34 17 14.5 101.07     LegendNANA
17:00 8.6 -0.5 53 34 17 14.5 101.14     LegendNANA
18:00 7.1 -0.5 58 34 13 14.5 101.18     LegendNANA
19:00 6.3 -0.9 60 34 17 14.5 101.26     LegendNANA
20:00 5.0 -1.0 65 34 15 14.5 101.28     LegendNANA
21:00 3.7 -1.4 69 32 15 14.5 101.32     LegendNANA
22:00 3.0 -0.6 77 29 9 14.5 101.35     LegendNANA
23:00 2.1 -1.0 80 29 11 14.5 101.37     LegendNANA

Notes on Data Quality.

Legend

  • E = Estimated
  • M = Missing
  • NA = Not Available
  • ‡ = Partner data that is not subject to review by the National Climate Archives
Date modified: